This is the latest recevied weather packets stored in our database for station/object HS3PIK-2. If no packets are shown the sender has not sent any weather packets the latest 10 day(s).
| Time | Temp. | Humidity | Pressure | Rain* | Wind** | Luminosity | Snow |
|---|---|---|---|---|---|---|---|
| 1777962784 | 33.89° C | 67% | - | - | - | 0 W/m² | - |
| 1777962452 | 33.33° C | 67% | - | - | - | 0 W/m² | - |
| 1777962122 | 33.89° C | 69% | - | - | - | 0 W/m² | - |
| 1777961792 | 32.78° C | 70% | - | - | - | 0 W/m² | - |
| 1777961464 | 32.78° C | 68% | - | - | - | 0 W/m² | - |
| 1777961132 | 32.78° C | 69% | - | - | - | 0 W/m² | - |
| 1777960807 | 32.78° C | 69% | - | - | - | 0 W/m² | - |
| 1777960479 | 32.78° C | 69% | - | - | - | 0 W/m² | - |
| 1777960152 | 32.78° C | 69% | - | - | - | 0 W/m² | - |
| 1777959822 | 32.78° C | 70% | - | - | - | 0 W/m² | - |
| 1777959494 | 32.78° C | 70% | - | - | - | 0 W/m² | - |
| 1777959165 | 32.78° C | 70% | - | - | - | 0 W/m² | - |
| 1777958840 | 32.78° C | 70% | - | - | - | 0 W/m² | - |
| 1777958507 | 32.78° C | 70% | - | - | - | 0 W/m² | - |
| 1777958180 | 33.33° C | 66% | - | - | - | 0 W/m² | - |
| 1777957850 | 32.78° C | 67% | - | - | - | 0 W/m² | - |
| 1777957527 | 32.78° C | 69% | - | - | - | 0 W/m² | - |
| 1777957202 | 32.78° C | 68% | - | - | - | 0 W/m² | - |
| 1777956870 | 32.78° C | 70% | - | - | - | 0 W/m² | - |
| 1777956545 | 32.22° C | 70% | - | - | - | 0 W/m² | - |
| 1777956218 | 32.22° C | 71% | - | - | - | 0 W/m² | - |
| 1777955893 | 32.22° C | 71% | - | - | - | 0 W/m² | - |
| 1777955563 | 32.22° C | 71% | - | - | - | 0 W/m² | - |
| 1777955238 | 32.22° C | 71% | - | - | - | 0 W/m² | - |
| 1777954915 | 32.22° C | 73% | - | - | - | 0 W/m² | - |
* Rain since midnight (hover to see other rain measurements)
** Current wind speed in m/s (hover to see current wind gust speed)